Hourly Weather Golchan

Today, 7 May, Friday

Time Temperature Precipitation Wind Pressure Humidity
00:00 +5°C° 0 mm 5 mps 736 mmHg 84%
01:00 +3°C° 0 mm 5 mps 736 mmHg 83%
02:00 +3°C° 0 mm 5 mps 736 mmHg 82%
03:00 +4°C° 0 mm 4 mps 737 mmHg 82%
04:00 +4°C° 0 mm 4 mps 737 mmHg 81%
05:00 +4°C° 0 mm 4 mps 737 mmHg 81%
06:00 +5°C° 0 mm 4 mps 738 mmHg 74%
07:00 +6°C° 0 mm 5 mps 738 mmHg 68%
08:00 +7°C° 0 mm 5 mps 738 mmHg 62%
09:00 +8°C° 0 mm 5 mps 738 mmHg 56%
10:00 +9°C° 0 mm 5 mps 739 mmHg 50%
11:00 +10°C° 0 mm 6 mps 739 mmHg 43%
12:00 +10°C° 0.1 mm 5 mps 739 mmHg 45%
13:00 +10°C° 0.1 mm 5 mps 739 mmHg 46%
14:00 +10°C° 0.1 mm 5 mps 739 mmHg 48%
15:00 +11°C° 0 mm 4 mps 739 mmHg 50%
16:00 +11°C° 0 mm 4 mps 739 mmHg 52%
17:00 +11°C° 0 mm 4 mps 739 mmHg 55%
18:00 +10°C° 0 mm 3 mps 740 mmHg 63%
19:00 +8°C° 0 mm 3 mps 740 mmHg 72%
20:00 +6°C° 0 mm 2 mps 740 mmHg 80%
21:00 +5°C° 0 mm 3 mps 740 mmHg 83%
22:00 +5°C° 0 mm 3 mps 740 mmHg 87%
23:00 +4°C° 0 mm 3 mps 740 mmHg 90%

Tomorrow, 8 May, Saturday

Time Temperature Precipitation Wind Pressure Humidity
00:00 +5°C° 0 mm 3 mps 739 mmHg 88%
01:00 +5°C° 0 mm 3 mps 739 mmHg 85%
02:00 +5°C° 0 mm 4 mps 739 mmHg 83%
03:00 +5°C° 0.7 mm 5 mps 738 mmHg 86%
04:00 +4°C° 0.7 mm 6 mps 738 mmHg 88%
05:00 +5°C° 0.7 mm 7 mps 737 mmHg 91%
06:00 +5°C° 0.8 mm 6 mps 737 mmHg 92%
07:00 +4°C° 0.8 mm 6 mps 736 mmHg 92%
08:00 +4°C° 0.8 mm 6 mps 736 mmHg 92%
09:00 +5°C° 1.2 mm 5 mps 736 mmHg 93%
10:00 +6°C° 1.2 mm 5 mps 735 mmHg 94%
11:00 +6°C° 1.2 mm 4 mps 735 mmHg 95%
12:00 +7°C° 0.7 mm 3 mps 735 mmHg 95%
13:00 +7°C° 0.7 mm 3 mps 734 mmHg 95%
14:00 +8°C° 0.7 mm 2 mps 734 mmHg 96%
15:00 +8°C° 0.5 mm 2 mps 734 mmHg 96%
16:00 +8°C° 0.5 mm 2 mps 734 mmHg 96%
17:00 +7°C° 0.5 mm 3 mps 734 mmHg 95%
18:00 +5°C° 0.9 mm 3 mps 735 mmHg 95%
19:00 +4°C° 0.9 mm 4 mps 735 mmHg 95%
20:00 +2°C° 0.9 mm 5 mps 736 mmHg 95%
21:00 +2°C° 1 mm 5 mps 736 mmHg 94%
22:00 +2°C° 1 mm 5 mps 736 mmHg 94%
23:00 +2°C° 1 mm 5 mps 737 mmHg 94%

Day after tomorrow, 9 May, Sunday

Time Temperature Precipitation Wind Pressure Humidity
00:00 +2°C° 0.3 mm 5 mps 737 mmHg 94%
01:00 +2°C° 0.3 mm 5 mps 738 mmHg 93%
02:00 +1°C° 0.3 mm 5 mps 739 mmHg 92%
03:00 +1°C° 0 mm 5 mps 739 mmHg 91%
04:00 +1°C° 0 mm 5 mps 740 mmHg 89%
05:00 +1°C° 0 mm 5 mps 741 mmHg 88%
06:00 +2°C° 0 mm 5 mps 741 mmHg 82%
07:00 +3°C° 0 mm 5 mps 742 mmHg 76%
08:00 +4°C° 0 mm 6 mps 743 mmHg 71%
09:00 +5°C° 0 mm 6 mps 743 mmHg 63%
10:00 +7°C° 0 mm 5 mps 744 mmHg 55%
11:00 +8°C° 0 mm 5 mps 745 mmHg 48%
12:00 +9°C° 0 mm 5 mps 745 mmHg 44%
13:00 +9°C° 0 mm 5 mps 746 mmHg 40%
14:00 +10°C° 0 mm 5 mps 746 mmHg 36%
15:00 +11°C° 0 mm 4 mps 747 mmHg 40%
16:00 +11°C° 0 mm 4 mps 747 mmHg 44%
17:00 +11°C° 0 mm 3 mps 748 mmHg 48%
18:00 +9°C° 0 mm 2 mps 749 mmHg 57%
19:00 +7°C° 0 mm 2 mps 749 mmHg 65%
20:00 +6°C° 0 mm 1 mps 750 mmHg 74%
21:00 +6°C° 0 mm 1 mps 750 mmHg 75%
22:00 +4°C° 0 mm 2 mps 751 mmHg 77%
23:00 +4°C° 0 mm 2 mps 751 mmHg 78%

10 May, Monday

Time Temperature Precipitation Wind Pressure Humidity
00:00 +3°C° 0 mm 2 mps 751 mmHg 78%
01:00 +3°C° 0 mm 2 mps 752 mmHg 79%
02:00 +3°C° 0 mm 2 mps 752 mmHg 79%
03:00 +3°C° 0 mm 2 mps 752 mmHg 77%
04:00 +3°C° 0 mm 3 mps 753 mmHg 76%
05:00 +3°C° 0 mm 3 mps 753 mmHg 75%
06:00 +5°C° 0 mm 3 mps 753 mmHg 69%
07:00 +7°C° 0 mm 4 mps 753 mmHg 63%
08:00 +10°C° 0 mm 4 mps 753 mmHg 57%
09:00 +10°C° 0 mm 4 mps 754 mmHg 60%
10:00 +10°C° 0 mm 4 mps 754 mmHg 62%
11:00 +10°C° 0 mm 4 mps 754 mmHg 65%
12:00 +11°C° 0 mm 4 mps 754 mmHg 61%
13:00 +13°C° 0 mm 4 mps 754 mmHg 56%
14:00 +15°C° 0 mm 5 mps 754 mmHg 52%
15:00 +15°C° 0 mm 4 mps 754 mmHg 55%
16:00 +15°C° 0 mm 4 mps 754 mmHg 59%
17:00 +16°C° 0 mm 3 mps 754 mmHg 62%
18:00 +13°C° 0 mm 3 mps 754 mmHg 70%
19:00 +11°C° 0 mm 3 mps 754 mmHg 77%
20:00 +9°C° 0 mm 3 mps 754 mmHg 85%
21:00 +9°C° 0 mm 2 mps 754 mmHg 86%
22:00 +8°C° 0 mm 2 mps 755 mmHg 88%
23:00 +8°C° 0 mm 2 mps 755 mmHg 89%

11 May, Tuesday

Time Temperature Precipitation Wind Pressure Humidity
00:00 +7°C° 0 mm 2 mps 755 mmHg 90%
01:00 +7°C° 0 mm 2 mps 755 mmHg 90%
02:00 +7°C° 0 mm 2 mps 755 mmHg 91%
03:00 +7°C° 0 mm 2 mps 755 mmHg 90%
04:00 +7°C° 0 mm 2 mps 756 mmHg 88%
05:00 +8°C° 0 mm 2 mps 756 mmHg 86%
06:00 +10°C° 0 mm 2 mps 756 mmHg 78%
07:00 +12°C° 0 mm 3 mps 756 mmHg 71%
08:00 +14°C° 0 mm 3 mps 756 mmHg 63%
09:00 +16°C° 0 mm 3 mps 756 mmHg 58%
10:00 +17°C° 0 mm 3 mps 756 mmHg 54%
11:00 +19°C° 0 mm 3 mps 756 mmHg 49%
12:00 +19°C° 0 mm 3 mps 756 mmHg 48%
13:00 +20°C° 0 mm 3 mps 755 mmHg 47%
14:00 +20°C° 0 mm 3 mps 755 mmHg 46%
15:00 +20°C° 0 mm 3 mps 755 mmHg 50%
16:00 +19°C° 0 mm 3 mps 755 mmHg 54%
17:00 +19°C° 0 mm 2 mps 754 mmHg 57%
18:00 +17°C° 0 mm 2 mps 754 mmHg 65%
19:00 +15°C° 0 mm 2 mps 754 mmHg 73%
20:00 +13°C° 0 mm 2 mps 754 mmHg 80%
21:00 +12°C° 0 mm 2 mps 754 mmHg 82%
22:00 +10°C° 0 mm 2 mps 754 mmHg 83%
23:00 +10°C° 0 mm 2 mps 754 mmHg 85%

12 May, Wednesday

Time Temperature Precipitation Wind Pressure Humidity
00:00 +9°C° 0 mm 2 mps 754 mmHg 85%
01:00 +10°C° 0 mm 1 mps 754 mmHg 85%
02:00 +9°C° 0 mm 1 mps 754 mmHg 85%
03:00 +10°C° 0 mm 1 mps 754 mmHg 83%
04:00 +10°C° 0 mm 1 mps 754 mmHg 81%
05:00 +10°C° 0 mm 1 mps 754 mmHg 80%
06:00 +12°C° 0 mm 1 mps 754 mmHg 73%
07:00 +15°C° 0 mm 1 mps 754 mmHg 66%
08:00 +18°C° 0 mm 1 mps 754 mmHg 59%
09:00 +18°C° 0 mm 2 mps 754 mmHg 55%
10:00 +19°C° 0 mm 2 mps 754 mmHg 51%
11:00 +20°C° 0 mm 2 mps 754 mmHg 48%
12:00 +21°C° 0 mm 3 mps 753 mmHg 47%
13:00 +21°C° 0 mm 3 mps 753 mmHg 46%
14:00 +22°C° 0 mm 3 mps 753 mmHg 45%
15:00 +21°C° 0 mm 3 mps 752 mmHg 50%
16:00 +21°C° 0 mm 2 mps 752 mmHg 55%
17:00 +20°C° 0 mm 2 mps 752 mmHg 59%
18:00 +18°C° 0 mm 2 mps 752 mmHg 67%
19:00 +16°C° 0 mm 2 mps 752 mmHg 76%
20:00 +14°C° 0 mm 2 mps 751 mmHg 84%
21:00 +14°C° 0 mm 2 mps 751 mmHg 85%
22:00 +13°C° 0 mm 2 mps 751 mmHg 86%
23:00 +12°C° 0 mm 2 mps 751 mmHg 87%
Show more